Phillips, WI

5:16 AM CST on November 19, 2017 (GMT -0600)
Price County

Weather History for KPBH - October, 2012

Change the Weather History Date:

Sunday, October 28, 2012

  Actual Average Record
Temperature  
Mean Temperature 34 °F -  
Max Temperature 46 °F 46 °F 62 °F (1998)
Min Temperature 21 °F 32 °F 21 °F (2007)
Degree Days  
Heating Degree Days 32    
Moisture  
Dew Point 21 °F    
Average Humidity 68    
Maximum Humidity 100    
Minimum Humidity 29    
Precipitation  
Precipitation 0.00 in - - ()
Sea Level Pressure  
Sea Level Pressure 30.33 in    
Wind  
Wind Speed 1 mph (SW)    
Max Wind Speed 8 mph    
Max Gust Speed -    
Visibility 10 miles    
Events      
Averages and records for this station are not official NWS values.
T = Trace of Precipitation, MM = Missing Value Source: NWS Daily Summary

Daily Weather History Graph

Daily Weather History Graph

Search for Another Location

Airport or City:

Trip Planner

Search our weather history database for the weather conditions in past years. The results will help you decide how hot, cold, wet, or windy it might be!

Date:

Astronomy

Oct. 28, 2012 Rise Set
Actual Time 7:36 AM CDT 5:53 PM CDT
Civil Twilight 7:05 AM CDT 6:24 PM CDT
Nautical Twilight 6:30 AM CDT 6:59 PM CDT
Astronomical Twilight 5:56 AM CDT 7:33 PM CDT
Moon 5:11 PM CDT (10/28) 6:28 AM CDT (10/28)
Length of Visible Light 11h 18m
Length of Day
10h 16m
Waxing Gibbous, 99% of the Moon is Illuminated
Oct 28
Waxing Gibbous
Oct 29
Full
Nov 6
Last Quarter
Nov 13
New
Nov 20
First Quarter

Hourly Weather History & Observations

Time (CDT) Temp. Windchill Dew Point Humidity Pressure Visibility Wind Dir Wind Speed Gust Speed Precip Events Conditions
12:15 AM 26.6 °F - 23.0 °F 86% 30.33 in 10.0 mi Calm Calm - N/A   Unknown
12:55 AM 26.6 °F - 24.8 °F 93% 30.33 in 10.0 mi Calm Calm - N/A   Unknown
1:15 AM 24.8 °F - 21.2 °F 86% 30.33 in 10.0 mi Calm Calm - N/A   Unknown
1:35 AM 24.8 °F - 21.2 °F 86% 30.33 in 10.0 mi Calm Calm - N/A   Unknown
1:55 AM 23.0 °F - 21.2 °F 93% 30.34 in 10.0 mi Calm Calm - N/A   Unknown
2:15 AM 24.8 °F - 21.2 °F 86% 30.35 in 10.0 mi Calm Calm - N/A   Unknown
2:35 AM 23.0 °F - 21.2 °F 93% 30.34 in 10.0 mi Calm Calm - N/A   Unknown
2:55 AM 21.2 °F - 21.2 °F 100% 30.34 in 10.0 mi Calm Calm - N/A   Unknown
3:15 AM 23.0 °F - 21.2 °F 93% 30.34 in 10.0 mi Calm Calm - N/A   Unknown
3:35 AM 23.0 °F - 21.2 °F 93% 30.33 in 10.0 mi Calm Calm - N/A   Unknown
3:55 AM 23.0 °F - 21.2 °F 93% 30.33 in 10.0 mi Calm Calm - N/A   Unknown
4:15 AM 21.2 °F - 21.2 °F 100% 30.33 in 10.0 mi Calm Calm - N/A   Unknown
4:35 AM 21.2 °F - 21.2 °F 100% 30.33 in 10.0 mi Calm Calm - N/A   Unknown
4:55 AM 21.2 °F - 19.4 °F 93% 30.33 in 10.0 mi Calm Calm - N/A   Unknown
5:15 AM 21.2 °F - 21.2 °F 100% 30.33 in 10.0 mi Calm Calm - N/A   Unknown
5:35 AM 21.2 °F - 19.4 °F 93% 30.34 in 10.0 mi Calm Calm - N/A   Unknown
5:55 AM 21.2 °F - 19.4 °F 93% 30.34 in 10.0 mi Calm Calm - N/A   Unknown
6:15 AM 21.2 °F - 19.4 °F 93% 30.34 in 10.0 mi Calm Calm - N/A   Unknown
6:35 AM 21.2 °F - 19.4 °F 93% 30.34 in 10.0 mi Calm Calm - N/A   Unknown
6:55 AM 21.2 °F - 19.4 °F 93% 30.34 in 10.0 mi Calm Calm - N/A   Unknown
7:15 AM 21.2 °F - 19.4 °F 93% 30.34 in 10.0 mi Calm Calm - N/A   Unknown
7:35 AM 21.2 °F - 19.4 °F 93% 30.35 in 10.0 mi Calm Calm - N/A   Unknown
7:55 AM 21.2 °F - 19.4 °F 93% 30.35 in 10.0 mi Calm Calm - N/A   Unknown
8:15 AM 23.0 °F - 21.2 °F 93% 30.36 in 10.0 mi Calm Calm - N/A   Unknown
8:35 AM 24.8 °F - 21.2 °F 86% 30.36 in 10.0 mi Calm Calm - N/A   Unknown
8:55 AM 26.6 °F - 24.8 °F 93% 30.36 in 10.0 mi Calm Calm - N/A   Unknown
9:15 AM 30.2 °F - 24.8 °F 80% 30.36 in 10.0 mi Calm Calm - N/A   Unknown
9:55 AM 35.6 °F - 26.6 °F 70% 30.36 in 10.0 mi Calm Calm - N/A   Unknown
10:15 AM 37.4 °F - 24.8 °F 60% 30.35 in 10.0 mi Calm Calm - N/A   Unknown
10:35 AM 39.2 °F 33.6 °F 23.0 °F 52% 30.35 in 10.0 mi South 8.1 mph - N/A   Unknown
10:55 AM 41.0 °F 36.4 °F 21.2 °F 45% 30.35 in 10.0 mi South 6.9 mph - N/A   Clear
11:15 AM 41.0 °F 35.8 °F 19.4 °F 42% 30.35 in 10.0 mi SSW 8.1 mph - N/A   Scattered Clouds
11:35 AM 42.8 °F 38.0 °F 19.4 °F 39% 30.35 in 10.0 mi SSW 8.1 mph - N/A   Clear
12:15 PM 44.6 °F 40.2 °F 19.4 °F 37% 30.34 in 10.0 mi SSW 8.1 mph - N/A   Clear
12:35 PM 44.6 °F 40.7 °F 17.6 °F 34% 30.33 in 10.0 mi SW 6.9 mph - N/A   Clear
12:55 PM 44.6 °F 43.1 °F 17.6 °F 34% 30.33 in 10.0 mi West 3.5 mph - N/A   Clear
1:15 PM 44.6 °F 42.2 °F 17.6 °F 34% 30.32 in 10.0 mi West 4.6 mph - N/A   Clear
1:35 PM 44.6 °F 40.2 °F 17.6 °F 34% 30.32 in 10.0 mi SW 8.1 mph - N/A   Clear
1:55 PM 46.4 °F 44.3 °F 17.6 °F 32% 30.32 in 10.0 mi SSW 4.6 mph - N/A   Clear
2:15 PM 46.4 °F 43.5 °F 17.6 °F 32% 30.31 in 10.0 mi South 5.8 mph - N/A   Clear
2:35 PM 46.4 °F 44.3 °F 17.6 °F 32% 30.31 in 10.0 mi SW 4.6 mph - N/A   Clear
2:55 PM 46.4 °F - 17.6 °F 32% 30.30 in 10.0 mi Calm Calm - N/A   Clear
3:15 PM 46.4 °F 43.5 °F 15.8 °F 29% 30.31 in 10.0 mi SW 5.8 mph - N/A   Clear
3:35 PM 46.4 °F 42.4 °F 15.8 °F 29% 30.30 in 10.0 mi WSW 8.1 mph - N/A   Clear
3:55 PM 46.4 °F 42.9 °F 15.8 °F 29% 30.30 in 10.0 mi SW 6.9 mph - N/A   Clear
4:15 PM 46.4 °F 44.3 °F 15.8 °F 29% 30.30 in 10.0 mi WSW 4.6 mph - N/A   Clear
4:35 PM 46.4 °F 42.9 °F 15.8 °F 29% 30.30 in 10.0 mi SW 6.9 mph - N/A   Scattered Clouds
4:55 PM 46.4 °F 44.3 °F 15.8 °F 29% 30.30 in 10.0 mi SSW 4.6 mph - N/A   Scattered Clouds
5:15 PM 44.6 °F 43.1 °F 15.8 °F 31% 30.30 in 10.0 mi SSW 3.5 mph - N/A   Scattered Clouds
5:35 PM 42.8 °F 40.1 °F 15.8 °F 34% 30.30 in 10.0 mi SW 4.6 mph - N/A   Scattered Clouds
5:55 PM 42.8 °F - 17.6 °F 36% 30.31 in 10.0 mi Calm Calm - N/A   Scattered Clouds
6:15 PM 37.4 °F - 19.4 °F 48% 30.31 in 10.0 mi Calm Calm - N/A   Scattered Clouds
6:35 PM 33.8 °F - 21.2 °F 60% 30.31 in 10.0 mi Calm Calm - N/A   Scattered Clouds
6:55 PM 33.8 °F - 21.2 °F 60% 30.31 in 10.0 mi Calm Calm - N/A   Mostly Cloudy
7:15 PM 33.8 °F - 21.2 °F 60% 30.31 in 10.0 mi Calm Calm - N/A   Overcast
7:35 PM 33.8 °F - 21.2 °F 60% 30.32 in 10.0 mi Calm Calm - N/A   Overcast
7:55 PM 32.0 °F - 26.6 °F 80% 30.32 in 10.0 mi Calm Calm - N/A   Overcast
8:15 PM 33.8 °F - 26.6 °F 75% 30.32 in 10.0 mi Calm Calm - N/A   Overcast
8:55 PM 32.0 °F - 24.8 °F 75% 30.32 in 10.0 mi Calm Calm - N/A   Overcast
9:15 PM 30.2 °F - 24.8 °F 80% 30.32 in 10.0 mi Calm Calm - N/A   Scattered Clouds
9:35 PM 30.2 °F - 24.8 °F 80% 30.32 in 10.0 mi Calm Calm - N/A   Mostly Cloudy
9:55 PM 30.2 °F - 24.8 °F 80% 30.32 in 10.0 mi Calm Calm - N/A   Overcast
10:35 PM 28.4 °F - 24.8 °F 86% 30.33 in 10.0 mi Calm Calm - N/A   Scattered Clouds
10:55 PM 28.4 °F - 24.8 °F 86% 30.32 in 10.0 mi Calm Calm - N/A   Clear
11:15 PM 28.4 °F - 24.8 °F 86% 30.33 in 10.0 mi Calm Calm - N/A   Clear
11:55 PM 26.6 °F - 24.8 °F 93% 30.33 in 10.0 mi Calm Calm - N/A   Clear